User: anonymous   Login
Location: Mount Wilson Observatory
(34.2257°N, 118.0571°W)
Time: 22:15:21
(UTC-07:00)
Language:

ATLAS 3B CENTAUR R/B - Orbit

View from above orbital plane
View from above orbital plane
View from above satellite
View from above satellite

Ground track
Ground track

The orbit data is extracted from the following two-line orbital elements,

1 28118U 03057B   16120.28393309  .00070393  00000-0  12297-2 0  9997
2 28118  28.1308  96.2720 3324618 347.8548   5.7817  8.82162132251948
Epoch (UTC): 29 April 2016 06:48:51
Eccentricity: 0.3324618
inclination: 28.1308°
perigee height: 226 km
apogee height: 6805 km
right ascension of ascending node: 96.2720°
argument of perigee: 347.8548°
revolutions per day: 8.82162132
mean anomaly at epoch: 5.7817°
orbit number at epoch: 25194

The dashed part of the orbit path shows where the satellite is in the earth's shadow,  

DLR